GW6934 Weather Reports


Display with metric or nautical units.
time (UTC)temp
F
wind
direction
speed
MPH
gust
MPH
rain 1hr
in
rain 24hr
in
rain mn
in
humidity
%
barometer
mb
20260906111355 71 13 2.0 6.0 0.00 0.00 0.00 96 1046.9
20260906110850 71 44 2.0 3.0 0.00 0.00 0.00 96 1046.8
20260906110346 71 26 3.0 3.0 0.00 0.00 0.00 96 1046.9
20260906105844 71 25 5.0 6.0 0.00 0.00 0.00 96 1046.9
20260906105340 71 27 4.0 6.0 0.00 0.00 0.00 96 1047.0
20260906104836 71 27 4.0 6.0 0.00 0.00 0.00 96 1046.9
20260906104334 71 50 2.0 2.0 0.00 0.00 0.00 96 1046.7
20260906103833 70 39 2.0 2.0 0.00 0.00 0.00 96 1046.8
20260906103332 0 0.0 0.0 0.00 0.00 0.00 1046.7
20260906102828 0 0.0 0.0 0.00 0.00 0.00 1046.6
20260906102326 0 0.0 0.0 0.00 0.00 0.00 1046.7
20260906101822 0 0.0 0.0 0.00 0.00 0.00 1046.3
20260906101317 0 0.0 0.0 0.00 0.00 0.00 1046.4
20260906100813 70 15 1.0 1.0 0.00 0.00 0.00 95 1046.4
20260906100311 70 15 1.0 1.0 0.00 0.00 0.00 95 1046.4
20260906095807 0 0.0 0.0 0.00 0.00 0.00 1046.1
20260906095305 70 39 2.0 2.0 0.00 0.00 0.00 95 1046.3
20260906094801 70 39 2.0 2.0 0.00 0.00 0.00 95 1046.1
20260906094256 70 45 2.0 2.0 0.00 0.00 0.00 95 1046.1
20260906093753 70 50 2.0 2.0 0.00 0.00 0.00 95 1045.9
20260906093248 71 40 2.0 2.0 0.00 0.00 0.00 95 1046.3
20260906092743 0 0.0 0.0 0.00 0.00 0.00 1046.1
20260906092238 70 35 2.0 3.0 0.00 0.00 0.00 95 1046.3
20260906091734 70 35 2.0 3.0 0.00 0.00 0.00 95 1046.1
20260906091230 70 42 3.0 3.0 0.00 0.00 0.00 95 1046.1
20260906090726 70 45 3.0 4.0 0.00 0.00 0.00 95 1046.0
20260906090225 70 41 2.0 3.0 0.00 0.00 0.00 95 1046.1
20260906085724 71 25 0.0 1.0 0.00 0.00 0.00 95 1046.1
20260906085223 71 47 2.0 3.0 0.00 0.00 0.00 95 1046.1
20260906084719 71 18 3.0 3.0 0.00 0.00 0.00 95 1045.8
20260906084218 71 39 2.0 2.0 0.00 0.00 0.00 95 1046.0
20260906083714 71 44 2.0 2.0 0.00 0.00 0.00 94 1046.1
20260906083209 71 30 1.0 2.0 0.00 0.00 0.00 94 1046.0
20260906082704 71 14 1.0 1.0 0.00 0.00 0.00 95 1045.8
20260906082159 71 34 2.0 2.0 0.00 0.00 0.00 95 1046.3
20260906081655 0 0.0 0.0 0.00 0.00 0.00 1045.9
20260906081150 0 0.0 0.0 0.00 0.00 0.00 1046.0
20260906080646 70 17 0.0 0.0 0.00 0.00 0.00 95 1046.0
20260906080142 70 17 0.0 0.0 0.00 0.00 0.00 95 1046.0
20260906075642 0 0.0 0.0 0.00 0.00 0.00 1045.9
20260906075136 70 356 0.0 0.0 0.00 0.00 0.00 94 1046.0
20260906074632 70 356 0.0 0.0 0.00 0.00 0.00 94 1045.9
20260906074130 70 356 0.0 0.0 0.00 0.00 0.00 94 1045.8
20260906073626 0 0.0 0.0 0.00 0.00 0.00 1046.1
20260906073121 0 0.0 0.0 0.00 0.00 0.00 1045.9
20260906072616 0 0.0 0.0 0.00 0.00 0.00 1045.9
20260906072112 0 0.0 0.0 0.00 0.00 0.00 1046.0
20260906071609 0 0.0 0.0 0.00 0.00 0.00 1046.1
20260906071109 0 0.0 0.0 0.00 0.00 0.00 1045.9
20260906070606 0 0.0 0.0 0.00 0.00 0.00 1045.9
20260906070101 0 0.0 0.0 0.00 0.00 0.00 1046.4
20260906065600 0 0.0 0.0 0.00 0.00 0.00 1046.4
20260906065056 0 0.0 0.0 0.00 0.00 0.00 1046.4
20260906064551 0 0.0 0.0 0.00 0.00 0.00 1046.5
20260906064046 0 0.0 0.0 0.00 0.00 0.00 1046.4
20260906063541 0 0.0 0.0 0.00 0.00 0.00 1046.4
20260906063038 0 0.0 0.0 0.00 0.00 0.00 1046.4
20260906062532 0 0.0 0.0 0.00 0.00 0.00 1046.3
20260906062027 73 255 0.0 0.0 0.00 0.00 0.00 88 1046.3
20260906061523 73 255 0.0 0.0 0.00 0.00 0.00 88 1046.4
20260906061022 73 255 0.0 0.0 0.00 0.00 0.00 88 1046.6
20260906060519 0 0.0 0.0 0.00 0.00 0.00 1046.5
20260906060016 0 0.0 0.0 0.00 0.00 0.00 1046.4
20260906055511 0 0.0 0.0 0.00 0.00 0.00 1046.5
20260906055007 0 0.0 0.0 0.00 0.00 0.00 1046.8
20260906054507 73 350 0.0 1.0 0.00 0.00 0.00 87 1046.8
20260906054002 73 350 0.0 1.0 0.00 0.00 0.00 87 1046.8
20260906053458 73 350 0.0 1.0 0.00 0.00 0.00 87 1046.7
20260906052954 74 16 1.0 1.0 0.00 0.00 0.00 86 1046.6
20260906052450 74 16 1.0 1.0 0.00 0.00 0.00 86 1046.5
20260906051946 0 0.0 0.0 0.00 0.00 0.00 1046.6
20260906051441 0 0.0 0.0 0.00 0.00 0.00 1046.5
20260906050937 0 0.0 0.0 0.00 0.00 0.00 1046.6
20260906050437 0 0.0 0.0 0.00 0.00 0.00 1046.8
20260906045936 0 0.0 0.0 0.00 0.00 0.00 1046.6
20260906045435 0 0.0 0.0 0.00 0.00 0.00 1046.7
20260906044932 0 0.0 0.0 0.00 0.00 0.00 1046.5
20260906044432 0 0.0 0.0 0.00 0.00 0.00 1046.5
20260906043927 0 0.0 0.0 0.00 0.00 0.00 1046.5
20260906043423 0 0.0 0.0 0.00 0.00 0.00 1046.6
20260906042918 0 0.0 0.0 0.00 0.00 0.00 1046.4
20260906042417 0 0.0 0.0 0.00 0.00 0.00 1046.7
20260906041913 0 0.0 0.0 0.00 0.00 0.00 1046.7
20260906041409 0 0.0 0.0 0.00 0.00 0.00 1046.4
20260906040908 0 0.0 0.0 0.00 0.00 0.00 1046.7
20260906040403 0 0.0 0.0 0.00 0.00 0.00 1046.5
20260906035859 75 26 0.0 0.0 0.00 0.36 0.36 83 1046.4
20260906035355 75 26 0.0 0.0 0.00 0.36 0.36 83 1046.4
20260906034850 75 26 0.0 0.0 0.00 0.36 0.36 83 1046.4
20260906034350 0 0.0 0.0 0.00 0.36 0.36 1045.9
20260906033846 0 0.0 0.0 0.00 0.36 0.36 1046.1
20260906033345 0 0.0 0.0 0.00 0.36 0.36 1046.0
20260906032841 0 0.0 0.0 0.00 0.36 0.36 1046.0
20260906032337 0 0.0 0.0 0.00 0.36 0.36 1045.9
20260906031832 0 0.0 0.0 0.00 0.36 0.36 1046.0
20260906031327 0 0.0 0.0 0.00 0.36 0.36 1046.1
20260906030827 76 2 0.0 0.0 0.00 0.36 0.36 79 1046.1
20260906030323 76 2 0.0 0.0 0.00 0.36 0.36 79 1046.3
20260906025822 76 33 1.0 1.0 0.00 0.36 0.36 79 1045.9
20260906025316 76 4 1.0 1.0 0.00 0.36 0.36 79 1046.1
20260906024816 77 21 0.0 0.0 0.00 0.36 0.36 79 1046.4
20260906024315 77 21 0.0 0.0 0.00 0.36 0.36 79 1046.3
20260906023811 76 2 1.0 2.0 0.00 0.36 0.36 79 1045.9
20260906023306 76 5 4.0 6.0 0.00 0.36 0.36 81 1046.4
20260906022801 0 0.0 0.0 0.00 0.36 0.36 1045.8
20260906022257 0 0.0 0.0 0.00 0.36 0.36 1045.7
20260906021753 77 193 0.0 0.0 0.00 0.36 0.36 76 1045.7
20260906021251 77 193 0.0 0.0 0.00 0.36 0.36 76 1045.5
20260906020746 77 193 0.0 0.0 0.00 0.36 0.36 76 1045.4
20260906020246 0 0.0 0.0 0.00 0.00 0.00 1045.6
20260906015741 0 0.0 0.0 0.00 0.00 0.00 1045.6
20260906015240 0 0.0 0.0 0.00 0.00 0.00 1045.6
20260906014740 0 0.0 0.0 0.00 0.00 0.00 1045.6
20260906014235 0 0.0 0.0 0.00 0.00 0.00 1045.3
20260906013731 0 0.0 0.0 0.00 0.00 0.00 1045.6
20260906013231 0 0.0 0.0 0.00 0.00 0.00 1045.8
20260906012726 0 0.0 0.0 0.00 0.00 0.00 1045.7
20260906012221 0 0.0 0.0 0.00 0.00 0.00 1045.4
20260906011717 0 0.0 0.0 0.00 0.00 0.00 1045.3
20260906011211 0 0.0 0.0 0.00 0.00 0.00 1045.4
20260906010707 0 0.0 0.0 0.00 0.00 0.00 1045.3
20260906010203 0 0.0 0.0 0.00 0.00 0.00 1045.0
20260906005702 0 0.0 0.0 0.00 0.00 0.00 1045.2
20260906005202 0 0.0 0.0 0.00 0.00 0.00 1045.0
20260906004701 0 0.0 0.0 0.00 0.00 0.00 1045.0
20260906004156 0 0.0 0.0 0.00 0.00 0.00 1045.1
20260906003652 0 0.0 0.0 0.00 0.00 0.00 1044.9
20260906003147 0 0.0 0.0 0.00 0.00 0.00 1044.8
20260906002647 0 0.0 0.0 0.00 0.00 0.00 1044.7
20260906002142 0 0.0 0.0 0.00 0.00 0.00 1044.9
20260906001637 0 0.0 0.0 0.00 0.00 0.00 1044.7
20260906001137 0 0.0 0.0 0.00 0.00 0.00 1044.9
20260906000633 0 0.0 0.0 0.00 0.00 0.00 1044.9
20260906000128 0 0.0 0.0 0.00 0.00 0.00 1045.0
20260905235627 0 0.0 0.0 0.00 0.00 0.00 1045.0
20260905235123 0 0.0 0.0 0.00 0.00 0.00 1045.3
20260905234618 0 0.0 0.0 0.00 0.00 0.00 1045.4
20260905234114 0 0.0 0.0 0.00 0.36 0.36 1045.4
20260905233613 0 0.0 0.0 0.00 0.36 0.36 1045.5
20260905233108 0 0.0 0.0 0.00 0.36 0.36 1045.3
20260905232603 0 0.0 0.0 0.00 0.36 0.36 1045.4
20260905232059 0 0.0 0.0 0.00 0.36 0.36 1045.5
20260905231554 0 0.0 0.0 0.00 0.36 0.36 1045.5
20260905231050 0 0.0 0.0 0.00 0.36 0.36 1045.8
20260905230550 0 0.0 0.0 0.00 0.36 0.36 1045.6
20260905230048 0 0.0 0.0 0.00 0.36 0.36 1045.7
20260905225543 0 0.0 0.0 0.00 0.36 0.36 1045.4
20260905225038 90 3 0.0 0.0 0.00 0.36 0.36 55 1045.3
20260905224538 90 3 0.0 0.0 0.00 0.36 0.36 55 1045.3
20260905224037 0 0.0 0.0 0.00 0.36 0.36 1045.2
20260905223535 91 355 1.0 1.0 0.00 0.36 0.36 54 1045.5
20260905223031 91 355 1.0 1.0 0.00 0.36 0.36 54 1045.3
20260905222530 91 355 1.0 1.0 0.00 0.36 0.36 54 1045.5
20260905222026 92 354 1.0 2.0 0.00 0.36 0.36 51 1045.6
20260905221522 93 4 2.0 2.0 0.00 0.36 0.36 50 1045.4
20260905221018 93 0 1.0 1.0 0.00 0.36 0.36 50 1045.4
20260905220514 92 348 2.0 2.0 0.00 0.36 0.36 50 1045.4
20260905220010 92 350 2.0 2.0 0.00 0.36 0.36 51 1045.4
20260905215504 92 319 2.0 3.0 0.00 0.36 0.36 51 1045.5
20260905215000 93 344 3.0 4.0 0.00 0.36 0.36 50 1045.6
20260905214455 94 247 2.0 3.0 0.00 0.36 0.36 48 1045.1
20260905213955 94 22 2.0 2.0 0.00 0.36 0.36 49 1045.1
20260905213452 95 48 0.0 1.0 0.00 0.36 0.36 47 1045.3
20260905212946 95 252 1.0 1.0 0.00 0.36 0.36 48 1045.2
20260905212441 94 267 1.0 1.0 0.00 0.36 0.36 47 1045.0
20260905211940 94 267 1.0 1.0 0.00 0.36 0.36 47 1045.1
20260905211436 94 267 1.0 1.0 0.00 0.36 0.36 47 1045.2
20260905210932 94 324 3.0 4.0 0.00 0.36 0.36 46 1045.1
20260905210432 95 341 1.0 1.0 0.00 0.36 0.36 48 1045.0
20260905205932 96 348 2.0 2.0 0.00 0.36 0.36 47 1045.2
20260905205427 0 0.0 0.0 0.00 0.36 0.36 1045.2
20260905204926 94 351 3.0 3.0 0.00 0.36 0.36 46 1045.1
20260905204422 94 351 3.0 3.0 0.00 0.36 0.36 46 1045.2
20260905203921 94 351 3.0 3.0 0.00 0.36 0.36 46 1045.5
20260905203416 94 1 2.0 2.0 0.00 0.36 0.36 46 1045.3
20260905202912 94 1 2.0 2.0 0.00 0.36 0.36 46 1045.7
20260905202407 0 0.0 0.0 0.00 0.36 0.36 1045.6
20260905201902 95 263 5.0 6.0 0.00 0.36 0.36 45 1045.6
20260905201358 95 263 5.0 6.0 0.00 0.36 0.36 45 1045.8
20260905200857 0 0.0 0.0 0.00 0.00 0.00 1045.6
20260905200353 0 0.0 0.0 0.00 0.00 0.00 1045.8
20260905195851 0 0.0 0.0 0.00 0.00 0.00 1045.8
20260905195347 0 0.0 0.0 0.00 0.00 0.00 1046.0
20260905194842 0 0.0 0.0 0.00 0.00 0.00 1046.0
20260905194342 0 0.0 0.0 0.00 0.00 0.00 1046.1
20260905193841 0 0.0 0.0 0.00 0.00 0.00 1046.3
20260905193336 0 0.0 0.0 0.00 0.00 0.00 1046.3
20260905192832 0 0.0 0.0 0.00 0.00 0.00 1046.5
20260905192328 0 0.0 0.0 0.00 0.00 0.00 1046.6
20260905191827 0 0.0 0.0 0.00 0.00 0.00 1046.5
20260905191326 0 0.0 0.0 0.00 0.00 0.00 1046.7
20260905190825 0 0.0 0.0 0.00 0.00 0.00 1046.6
20260905190324 0 0.0 0.0 0.00 0.00 0.00 1046.7
20260905185823 0 0.0 0.0 0.00 0.00 0.00 1046.8
20260905185319 0 0.0 0.0 0.00 0.00 0.00 1046.7
20260905184818 0 0.0 0.0 0.00 0.00 0.00 1046.7
20260905184317 0 0.0 0.0 0.00 0.00 0.00 1046.7
20260905183815 0 0.0 0.0 0.00 0.00 0.00 1046.9
20260905183311 0 0.0 0.0 0.00 0.00 0.00 1047.1
20260905182806 0 0.0 0.0 0.00 0.00 0.00 1047.2
20260905182306 0 0.0 0.0 0.00 0.00 0.00 1047.2
20260905181800 0 0.0 0.0 0.00 0.00 0.00 1047.3
20260905181255 0 0.0 0.0 0.00 0.00 0.00 1047.2
20260905180754 0 0.0 0.0 0.00 0.00 0.00 1047.2
20260905180249 0 0.0 0.0 0.00 0.00 0.00 1047.6
20260905175744 0 0.0 0.0 0.00 0.00 0.00 1047.4
20260905175239 0 0.0 0.0 0.00 0.00 0.00 1047.4
20260905174734 0 0.0 0.0 0.00 0.00 0.00 1047.7
20260905174229 0 0.0 0.0 0.00 0.00 0.00 1047.8
20260905173726 0 0.0 0.0 0.00 0.00 0.00 1047.7
20260905173222 0 0.0 0.0 0.00 0.00 0.00 1047.7
20260905172721 0 0.0 0.0 0.00 0.00 0.00 1047.5
20260905172221 0 0.0 0.0 0.00 0.00 0.00 1047.7
20260905171716 0 0.0 0.0 0.00 0.00 0.00 1047.7
20260905171213 0 0.0 0.0 0.00 0.00 0.00 1047.9
20260905170710 0 0.0 0.0 0.00 0.36 0.36 1047.8
20260905170209 0 0.0 0.0 0.00 0.36 0.36 1048.0
20260905165709 0 0.0 0.0 0.00 0.36 0.36 1048.3
20260905165204 0 0.0 0.0 0.00 0.36 0.36 1048.0
20260905164659 0 0.0 0.0 0.00 0.36 0.36 1048.1
20260905164159 0 0.0 0.0 0.00 0.36 0.36 1048.0
20260905163655 0 0.0 0.0 0.00 0.36 0.36 1048.3
20260905163151 0 0.0 0.0 0.00 0.36 0.36 1047.8
20260905162647 0 0.0 0.0 0.00 0.36 0.36 1047.9
20260905162146 0 0.0 0.0 0.00 0.36 0.36 1047.9
20260905161641 85 170 6.0 8.0 0.00 0.36 0.36 57 1048.2
20260905161139 85 170 6.0 8.0 0.00 0.36 0.36 57 1048.0
20260905160639 85 152 2.0 3.0 0.00 0.36 0.36 61 1048.1
20260905160138 85 152 2.0 3.0 0.00 0.36 0.36 61 1048.4
20260905155632 85 162 5.0 6.0 0.00 0.36 0.36 58 1048.2
20260905155131 84 183 3.0 3.0 0.00 0.36 0.36 60 1048.2
20260905154631 0 0.0 0.0 0.00 0.36 0.36 1048.3
20260905154127 0 0.0 0.0 0.00 0.36 0.36 1048.2
20260905153623 0 0.0 0.0 0.00 0.36 0.36 1048.3
20260905153118 0 0.0 0.0 0.00 0.36 0.36 1048.4
20260905152613 0 0.0 0.0 0.00 0.36 0.36 1048.2
20260905152108 83 164 3.0 3.0 0.00 0.36 0.36 64 1048.8
20260905151603 83 164 3.0 3.0 0.00 0.36 0.36 64 1048.6
20260905151058 83 106 4.0 4.0 0.00 0.36 0.36 65 1048.6
20260905150553 82 30 6.0 7.0 0.00 0.36 0.36 65 1048.5
20260905150052 82 30 6.0 7.0 0.00 0.36 0.36 65 1048.6
20260905145550 82 110 4.0 4.0 0.00 0.36 0.36 63 1048.6
20260905145049 0 0.0 0.0 0.00 0.36 0.36 1048.5
20260905144545 0 0.0 0.0 0.00 0.36 0.36 1048.6
20260905144044 0 0.0 0.0 0.00 0.36 0.36 1048.6
20260905143543 80 41 1.0 0.0 0.00 0.36 0.36 66 1048.8
20260905143039 80 41 1.0 0.0 0.00 0.36 0.36 66 1048.8
20260905142537 79 59 0.0 0.0 0.00 0.36 0.36 68 1048.6
20260905142033 79 59 0.0 0.0 0.00 0.36 0.36 68 1048.9
20260905141533 0 0.0 0.0 0.00 0.36 0.36 1048.9
20260905141030 0 0.0 0.0 0.00 0.36 0.36 1049.1
20260905140530 0 0.0 0.0 0.00 0.36 0.36 1049.0
20260905140029 0 0.0 0.0 0.00 0.36 0.36 1049.0
20260905135524 0 0.0 0.0 0.00 0.36 0.36 1049.1
20260905135020 0 0.0 0.0 0.00 0.36 0.36 1049.1
20260905134520 0 0.0 0.0 0.00 0.36 0.36 1049.1
20260905134019 72 10 2.0 2.0 0.00 0.36 0.36 88 1049.1
20260905133514 72 10 2.0 2.0 0.00 0.36 0.36 88 1049.3
20260905133014 72 10 2.0 4.0 0.00 0.36 0.36 88 1049.3
20260905132508 72 160 3.0 3.0 0.00 0.36 0.36 88 1049.4
20260905132009 72 160 3.0 3.0 0.00 0.36 0.36 88 1049.4
20260905131504 72 30 4.0 6.0 0.00 0.36 0.36 89 1049.3
20260905130959 72 345 0.0 1.0 0.00 0.36 0.36 89 1049.4
20260905130458 72 28 6.0 8.0 0.00 0.36 0.36 89 1049.5
20260905125958 72 42 8.0 9.0 0.00 0.36 0.36 89 1049.7
20260905125453 71 16 7.0 11.0 0.00 0.36 0.36 90 1049.9
20260905124948 71 16 7.0 11.0 0.00 0.36 0.36 90 1049.6
20260905124445 71 50 6.0 8.0 0.00 0.36 0.36 90 1049.9
20260905123940 71 68 6.0 7.0 0.00 0.36 0.36 90 1050.1
20260905123436 71 57 2.0 3.0 0.00 0.36 0.36 89 1049.9
20260905122936 71 57 2.0 11.0 0.00 0.36 0.36 89 1049.7
20260905122437 71 327 7.0 10.0 0.00 0.36 0.36 87 1050.1
20260905121932 70 353 1.0 1.0 0.00 0.36 0.36 92 1049.5
20260905121428 70 353 1.0 1.0 0.00 0.36 0.36 92 1049.0
20260905120926 70 353 2.0 2.0 0.00 0.36 0.36 92 1048.7
20260905120421 71 41 8.0 9.0 0.00 0.36 0.36 89 1048.8
20260905115916 71 41 8.0 9.0 0.28 0.36 0.36 89 1049.2
20260905115415 71 41 8.0 9.0 0.28 0.36 0.36 89 1049.1
20260905114911 72 359 4.0 6.0 0.07 0.31 0.31 88 1049.0
20260905114410 71 344 5.0 7.0 0.42 0.31 0.31 91 1049.6
20260905113909 71 29 2.0 6.0 0.35 0.30 0.30 95 1049.1
20260905113405 0 0.0 0.0 0.00 0.24 0.24 1049.1
20260905112900 0 0.0 0.0 0.00 0.24 0.24 1048.7
20260905112355 70 93 4.0 7.0 0.12 0.24 0.24 93 1048.8
20260905111850 70 93 4.0 7.0 0.35 0.24 0.24 93 1048.4